Terminal Aerodrome Forecast
Issued by NWS

Home | Current Version | Previous Version | Text Only | Print | Product List | Glossary Off
Versions: 1 2 3 4 5 6 7 8 9 10 11 12 13 14 15 16 17 18 19 20 21 22 23 24 25 26 27 28

000
FTUS43 KUNR 201600 AAA
TAFGCC
TAF AMD
KGCC 201602Z 2016/2112 34011G22KT P6SM SCT250
     FM210200 VRB05KT P6SM BKN250=

USA.gov is the U.S. government's official web portal to all federal, state and local government web resources and services.